Location: Newark
(40.7119°N, 74.0097°W)
Time: 15:22:18
(UTC+00:00)

ISS - Pass Details

Date: 01 July 2021
Orbit: 419 x 421 km, 51.6° (Epoch: 02 August)

Event Time Altitude Azimuth Distance (km) Brightness Sun altitude
Exits shadow 06:58:39 50° 109° (ESE) 542 -3.2 -20.5°
Drops below altitude 10° 07:01:33 10° 61° (ENE) 1,501 -0.1 -20.2°
Sets 07:03:41 0° 57° (ENE) 2,368 1.2 -20.0°
